Temperature
12 12 12 12 12 11 11 11 11 11 10 10 10 10 10 11 11 11 11 12 12 13 13 13 14 14 14 14 14 14 13 13 13 13 13 13 13 13 13 13 14 14 14
11 11 11 11 11 11 11 11 10 10 10 10 10 10 10 10 10 10 11 11 11 12 12 12 13 13 13 14 14 13 13 13 13 13 13 13 13 13 13 13 13 13 13
11 11 11 11 11 11 11 11 10 10 10 10 10 9 9 9 9 9 9 10 10 11 11 11 12 12 12 13 13 13 13 13 13 13 13 13 12 12 12 12 12 12 12
10 10 10 10 10 10 10 10 10 10 10 10 10 9 9 9 9 9 9 9 9 10 10 10 11 11 12 12 13 13 13 13 13 13 13 12 12 12 12 12 12 11 11
8 8 8 9 9 10 10 10 10 10 10 10 9 9 9 9 9 9 9 9 9 9 9 10 10 11 11 12 12 13 13 13 13 13 12 12 12 12 12 12 11 11 11
6 6 7 7 8 8 9 9 9 9 9 9 9 9 9 9 9 9 9 9 8 9 9 9 10 10 10 11 12 12 13 13 13 13 12 12 12 12 12 12 11 11 10
5 5 5 6 6 7 7 8 8 8 9 9 9 9 9 8 8 8 8 8 8 8 9 9 9 10 10 11 11 12 12 12 13 13 12 13 13 12 12 12 11 11 11
5 5 5 5 5 5 5 6 6 7 7 8 8 8 8 8 8 8 8 8 8 8 9 9 9 9 10 10 11 11 12 12 12 12 13 13 13 13 13 12 12 11 11
4 4 4 4 4 4 5 5 5 6 6 7 7 7 7 8 8 8 8 8 8 8 8 8 9 9 9 10 10 11 11 12 12 12 12 12 12 12 12 12 11 11 10
4 4 4 4 4 4 4 4 4 5 5 6 6 6 7 7 7 7 7 8 8 8 8 8 8 9 9 9 10 10 11 12 12 12 12 12 12 12 12 12 12 11 10
4 4 4 4 4 4 4 4 4 4 5 5 5 6 6 6 7 7 7 7 8 8 8 8 8 8 9 9 9 10 11 11 11 12 12 12 11 11 11 11 12 12 11
4 4 4 4 4 4 4 4 4 4 4 4 5 5 6 6 6 7 7 7 7 8 8 8 8 8 8 9 9 10 10 10 11 11 11 11 11 11 11 11 11 11 11
5 5 4 4 4 4 4 4 4 4 4 4 4 5 5 6 6 6 7 7 7 7 8 8 8 8 8 8 9 9 9 10 10 11 11 11 11 11 10 10 10 10 10
5 5 5 4 4 4 4 4 4 4 4 4 4 4 5 5 6 6 6 7 7 7 7 7 7 8 8 8 9 9 9 10 10 10 11 11 10 10 10 10 9 9 10
5 5 5 5 4 4 4 4 4 4 4 4 4 4 4 5 6 6 6 7 7 7 7 7 7 7 8 8 8 8 9 9 10 10 10 10 10 10 10 9 10 10 10
5 5 5 5 5 4 4 4 4 4 4 4 4 4 5 5 5 6 6 7 7 7 7 7 7 7 7 7 8 8 8 9 10 10 10 10 10 10 9 9 10 10 10
5 5 5 5 5 5 4 4 4 4 4 4 4 4 5 5 5 6 6 7 7 7 7 7 7 7 7 7 7 8 8 9 9 10 10 10 10 10 10 10 10 10 10
6 6 5 5 5 5 5 5 5 5 5 5 5 5 5 5 6 6 6 7 7 7 7 7 7 7 7 7 7 7 8 8 9 9 10 10 10 10 10 10 10 10 10
6 6 6 6 5 5 5 5 5 5 5 5 5 5 5 6 6 6 6 7 7 7 6 6 7 7 7 7 7 7 8 8 9 9 10 10 10 10 10 10 10 10 10
6 6 6 6 6 6 6 6 5 5 5 5 5 5 5 6 6 6 6 6 6 6 6 6 6 6 7 7 7 7 8 8 9 9 10 10 10 10 10 10 10 10 10
6 6 6 6 6 6 6 6 6 6 5 5 5 5 5 6 6 6 6 6 6 6 6 6 6 7 7 7 7 8 8 9 9 10 10 10 10 10 9 9 9 9 9
7 6 6 6 6 6 6 6 6 6 6 5 5 5 5 5 6 6 6 6 6 6 6 6 6 7 7 7 8 8 9 9 9 10 10 10 9 9 9 9 9 9 9
7 7 7 7 6 6 6 6 6 6 6 6 5 5 6 5 5 6 6 6 6 6 6 6 7 7 7 8 8 9 9 9 10 10 10 10 9 9 9 9 9 9 9
7 7 7 7 7 7 6 6 6 6 6 6 6 6 6 6 6 6 6 6 6 7 7 7 7 8 8 8 9 9 10 10 10 10 10 10 9 9 9 9 10 10 10
8 7 7 7 7 7 7 6 6 6 6 6 6 6 6 6 6 6 7 7 7 7 8 8 8 8 9 9 9 10 10 10 10 10 10 10 9 10 10 10 10 10 10
8 8 7 7 7 7 7 6 6 6 6 6 6 6 6 7 7 7 7 8 8 8 9 9 9 9 10 10 10 10 10 10 10 10 10 10 10 10 10 10 10 10 10
Wind_Speed
12 12 11 11 10 9 9 10 10 9 8 8 8 7 7 6 5 4 4 4 5 6 7 8 9 8 7 7 7 7 7 6 6 4 2 1 1 3 4 6 8 8 9
13 13 13 13 11 10 11 12 11 11 10 9 8 8 8 7 6 5 6 4 4 5 6 7 8 7 9 8 7 8 7 8 6 6 3 2 2 5 6 7 6 8 9
13 13 14 14 14 13 13 13 11 11 11 10 9 9 9 9 7 7 7 6 6 5 5 6 7 7 9 8 8 8 7 7 6 5 4 2 2 5 6 7 8 7 9
14 14 15 16 16 15 13 12 12 11 11 11 10 10 10 9 9 8 7 7 7 7 6 5 6 8 9 9 9 9 8 7 7 6 5 4 3 5 7 8 7 6 6
13 14 15 16 15 15 14 13 12 11 12 11 10 10 10 9 9 9 8 8 7 7 6 6 7 8 11 10 8 9 9 8 7 7 6 6 6 7 8 6 8 8 6
13 15 15 15 15 15 14 13 12 11 11 11 11 11 10 9 12 14 10 8 7 7 7 6 7 9 11 12 14 13 13 11 10 9 8 8 10 8 8 11 10 8 5
14 15 15 14 15 14 15 13 12 11 10 10 11 11 11 11 14 14 14 9 9 8 8 7 6 6 8 7 10 13 14 15 14 11 11 11 12 12 13 13 12 8 6
15 15 15 14 15 14 13 13 12 10 9 9 10 11 10 11 13 14 14 10 9 9 9 8 7 7 7 7 7 9 10 11 14 13 11 11 11 14 15 13 13 10 10
16 16 15 15 15 15 14 13 12 10 9 9 8 10 10 10 12 13 12 6 8 9 8 8 8 8 9 9 9 9 9 9 11 14 13 11 14 17 17 15 14 14 11
16 16 16 15 16 16 15 13 11 10 10 10 10 9 10 10 12 13 11 6 8 7 6 6 8 9 8 9 9 9 10 9 8 9 10 12 15 19 21 18 17 17 14
16 16 16 15 14 14 13 12 11 10 9 9 9 8 9 10 11 13 12 8 8 8 6 5 5 8 9 9 10 9 10 8 9 9 9 11 12 14 15 12 12 16 15
15 15 15 14 13 12 10 10 9 9 9 8 8 8 7 8 10 11 13 13 11 8 7 6 6 7 8 8 8 8 10 10 8 8 9 10 12 13 12 12 10 9 7
15 15 14 13 11 10 10 9 8 7 7 7 6 7 7 6 7 12 13 13 14 9 6 7 7 6 6 5 7 9 10 9 9 9 10 9 9 12 12 11 10 9 9
15 14 12 12 11 9 7 7 6 6 6 6 7 7 7 6 5 5 6 7 9 8 6 5 6 5 4 4 4 6 7 8 9 8 9 9 10 12 12 12 12 11 10
14 12 12 10 10 9 8 6 6 6 7 6 6 6 6 6 7 9 7 6 7 7 6 4 3 3 4 3 4 4 5 7 8 9 11 12 12 12 11 10 10 10 8
12 11 9 9 8 7 7 7 6 6 7 8 7 5 5 6 6 8 10 9 9 11 8 5 5 5 5 5 4 4 5 6 8 11 12 12 13 13 11 10 10 10 9
11 10 8 8 7 7 7 6 6 4 3 2 1 4 5 3 2 5 7 8 10 11 6 5 6 6 5 5 5 5 5 6 8 10 12 12 12 12 12 12 11 10 9
10 10 9 7 6 6 5 5 4 3 2 3 5 6 4 4 5 8 11 9 6 5 4 5 6 6 5 5 5 5 6 8 9 10 11 11 11 11 11 11 11 10 10
9 7 7 6 6 5 4 4 3 3 3 3 3 5 7 8 8 8 7 4 5 6 5 5 5 5 5 5 5 6 8 9 10 10 11 11 11 11 10 10 9 12 10
7 10 8 6 6 5 5 4 3 3 3 2 3 2 2 2 3 3 2 2 3 4 5 4 4 5 5 5 6 7 8 9 10 10 11 10 10 10 11 11 10 10 9
7 7 8 6 5 5 5 4 3 2 2 3 2 2 2 2 3 2 2 1 2 3 3 4 4 5 6 6 7 8 9 9 9 10 10 10 10 10 9 9 10 9 8
6 5 4 4 4 5 4 4 3 2 2 3 2 2 3 3 2 1 0 0 1 2 2 3 4 5 6 7 8 9 9 9 9 9 10 10 10 10 9 9 9 8 9
6 5 4 3 3 4 5 4 3 3 2 2 2 2 2 2 1 1 1 1 2 2 2 3 4 5 5 6 7 8 9 9 10 11 11 10 10 9 9 9 10 10 10
6 5 4 3 3 3 3 4 3 3 3 2 2 2 2 1 1 1 1 2 2 2 2 3 4 5 7 6 6 7 8 9 11 11 14 12 10 9 9 9 9 11 10
7 6 4 3 2 2 2 3 3 3 3 2 2 2 2 2 2 2 2 2 3 3 3 3 3 4 7 9 8 8 11 13 12 11 11 10 11 10 10 10 9 9 8
9 8 6 4 2 1 1 1 2 2 2 2 2 2 2 2 2 3 3 3 3 3 3 3 3 4 6 8 10 12 13 13 13 13 10 10 10 9 9 8 10 9 9
Wind_Direction
277 274 271 265 255 248 245 248 248 247 244 246 253 261 267 268 263 259 257 256 252 240 227 219 220 209 203 200 195 195 201 205 232 244 223 192 145 121 97 86 79 77 86
275 274 272 271 265 253 247 247 244 242 241 239 243 251 259 260 251 245 253 247 246 258 245 229 226 217 213 202 195 198 200 202 214 232 219 191 170 147 126 107 91 83 86
284 282 279 276 272 263 253 247 241 238 239 236 232 240 249 253 251 246 241 238 228 233 250 245 236 222 222 209 201 202 201 198 202 214 216 194 162 147 131 111 101 95 90
294 290 285 280 276 270 262 251 242 235 233 234 232 233 239 245 248 248 243 241 234 225 225 239 245 231 227 216 207 205 195 192 197 207 213 203 176 155 143 134 122 105 98
297 295 290 287 283 278 271 261 249 238 235 231 231 232 235 238 243 240 238 239 234 231 228 225 235 242 239 224 210 202 191 193 195 204 205 198 181 168 159 145 135 119 94
295 293 292 291 289 284 278 270 259 247 237 228 226 228 230 235 236 233 226 229 231 232 237 237 236 244 244 233 222 206 194 193 198 201 203 201 189 171 155 150 143 141 129
293 293 292 291 290 288 286 280 267 254 243 231 227 224 227 233 236 241 238 228 229 232 234 239 247 241 238 232 226 214 208 204 200 200 204 202 187 173 161 159 159 150 135
296 293 292 291 289 287 285 282 275 263 250 240 233 225 223 233 234 239 243 237 231 233 234 233 238 247 239 228 219 217 216 215 214 215 216 207 189 174 168 158 146 119 112
302 299 295 291 289 286 282 278 274 266 257 246 237 225 223 233 235 238 238 228 230 234 234 234 233 242 242 226 219 217 218 221 218 215 213 199 174 162 154 144 143 141 141
306 303 298 291 285 283 279 276 272 264 257 251 243 229 224 232 237 238 233 221 227 232 233 232 232 236 239 223 219 216 218 216 199 198 197 183 170 161 158 160 157 154 150
307 305 300 294 288 283 279 271 266 260 253 245 242 237 230 232 238 238 231 216 218 223 224 226 229 229 230 223 219 221 218 202 192 187 179 170 164 164 164 159 159 160 159
308 306 304 300 296 294 285 275 266 257 246 241 238 243 241 236 235 240 232 219 209 211 216 220 225 227 227 223 218 223 207 191 188 181 174 167 164 164 161 155 149 145 139
310 308 307 307 303 295 288 282 272 257 243 234 232 239 243 237 235 234 232 221 207 205 211 209 212 223 223 225 223 212 195 193 186 180 172 162 155 152 146 138 127 115 105
313 311 311 311 310 304 292 284 273 257 244 233 230 234 236 236 233 226 218 213 204 201 200 196 196 204 207 212 206 201 201 194 184 172 154 142 139 143 147 148 147 141 131
316 315 315 313 311 310 303 289 275 259 247 233 228 223 223 231 229 209 197 193 186 185 170 170 187 193 204 209 199 189 193 180 166 149 145 144 144 144 146 149 149 148 147
321 321 318 318 318 318 318 315 292 271 263 240 235 231 232 236 238 210 204 196 177 164 162 183 195 199 204 205 193 179 183 170 156 148 146 145 147 148 147 149 153 157 155
321 320 318 322 325 328 328 328 330 350 30 42 255 236 237 238 213 182 173 162 160 162 179 195 199 202 200 195 190 179 171 158 149 145 143 142 143 146 151 156 161 163 164
322 322 325 324 327 328 330 332 335 351 26 47 43 51 73 85 111 133 139 135 147 177 202 206 206 201 195 190 178 167 154 148 143 138 137 139 142 146 151 156 161 163 160
323 323 324 330 334 335 340 351 7 25 46 58 61 56 68 82 94 121 141 153 170 189 204 211 203 194 181 174 164 153 148 146 143 139 139 141 145 147 149 153 155 154 156
321 328 340 341 345 350 355 4 17 35 51 62 66 68 74 88 107 128 151 170 186 193 195 194 185 179 165 158 151 144 142 141 142 141 142 143 145 147 149 150 153 160 165
321 327 342 351 353 353 357 6 13 28 46 60 58 55 73 96 114 127 145 168 178 177 178 177 173 163 151 145 143 141 141 142 144 143 143 145 146 146 148 150 154 156 153
323 325 331 339 351 358 360 9 25 43 61 73 73 73 78 83 94 108 94 36 135 148 159 154 147 143 141 142 142 145 145 145 146 145 145 147 147 147 147 149 151 152 153
332 333 334 339 355 7 17 25 35 48 63 71 75 78 83 78 70 71 60 84 101 116 126 121 122 125 128 136 147 152 154 157 157 153 149 149 150 150 152 154 156 157 164
340 339 342 343 356 20 25 28 38 50 62 65 72 74 70 61 53 48 58 79 84 88 99 111 116 127 137 146 157 160 158 153 152 152 150 151 152 153 154 158 163 170 172
349 346 345 345 352 16 34 36 39 47 52 52 53 55 58 56 52 55 49 55 66 71 78 91 106 131 149 157 157 151 143 140 144 148 148 149 153 156 159 163 165 166 168
356 354 352 351 349 351 20 49 53 58 55 47 45 53 57 56 57 66 63 53 51 54 57 68 94 123 140 151 148 141 142 145 146 146 150 151 154 160 164 168 170 173 173
Height
1472 1469 1465 1462 1459 1457 1455 1453 1452 1451 1450 1449 1448 1447 1446 1445 1444 1444 1445 1446 1447 1450 1453 1456 1459 1462 1464 1465 1467 1469 1470 1470 1471 1472 1474 1475 1475 1476 1477 1478 1480 1482 1483
1465 1461 1458 1454 1450 1448 1446 1445 1444 1443 1442 1442 1442 1441 1440 1439 1439 1438 1438 1438 1440 1442 1445 1448 1451 1454 1457 1460 1462 1463 1465 1466 1467 1469 1470 1472 1473 1474 1476 1477 1479 1481 1482
1458 1453 1449 1445 1442 1439 1437 1436 1435 1434 1434 1434 1434 1434 1434 1434 1433 1432 1432 1432 1433 1434 1437 1439 1443 1446 1450 1453 1455 1458 1460 1461 1463 1465 1466 1469 1470 1472 1474 1476 1478 1480 1482
1449 1444 1439 1436 1432 1429 1427 1426 1425 1425 1425 1425 1426 1426 1427 1427 1427 1427 1427 1427 1427 1428 1430 1432 1435 1438 1442 1445 1449 1451 1454 1456 1458 1460 1462 1465 1467 1469 1471 1474 1477 1479 1481
1440 1435 1430 1426 1422 1419 1417 1415 1415 1415 1416 1417 1417 1418 1419 1420 1420 1421 1422 1422 1422 1423 1425 1426 1428 1431 1434 1437 1441 1444 1447 1450 1452 1454 1457 1460 1463 1465 1468 1471 1474 1477 1481
1431 1425 1420 1416 1412 1408 1406 1405 1404 1404 1405 1407 1408 1410 1411 1412 1414 1415 1416 1417 1418 1419 1420 1421 1423 1425 1427 1430 1433 1437 1440 1443 1446 1449 1451 1454 1457 1460 1464 1467 1471 1475 1479
1422 1416 1411 1407 1402 1399 1396 1394 1393 1394 1395 1397 1399 1401 1402 1405 1407 1408 1410 1411 1412 1413 1415 1416 1417 1419 1421 1423 1426 1430 1433 1436 1440 1443 1445 1448 1451 1455 1459 1463 1468 1472 1475
1414 1409 1403 1398 1394 1390 1387 1384 1383 1384 1385 1387 1389 1392 1394 1397 1399 1401 1403 1405 1406 1408 1409 1411 1412 1413 1415 1417 1420 1422 1425 1429 1433 1436 1439 1443 1447 1450 1454 1459 1464 1469 1475
1407 1401 1396 1390 1385 1381 1378 1375 1374 1375 1375 1377 1380 1383 1385 1388 1392 1394 1397 1398 1400 1402 1404 1405 1406 1407 1409 1411 1413 1415 1418 1422 1426 1430 1433 1437 1441 1445 1449 1454 1460 1465 1471
1401 1395 1388 1383 1378 1373 1369 1367 1366 1366 1367 1369 1371 1374 1377 1380 1384 1387 1389 1391 1393 1396 1398 1400 1401 1402 1403 1404 1406 1409 1412 1416 1420 1424 1427 1431 1435 1439 1444 1449 1454 1460 1466
1395 1388 1382 1376 1370 1365 1361 1359 1358 1358 1359 1360 1363 1366 1369 1372 1375 1379 1381 1384 1387 1389 1392 1394 1396 1397 1397 1399 1400 1403 1406 1411 1414 1418 1422 1425 1430 1435 1440 1446 1452 1457 1462
1389 1383 1376 1370 1365 1360 1356 1353 1351 1351 1351 1353 1355 1358 1361 1365 1368 1371 1374 1377 1380 1383 1386 1388 1390 1392 1392 1394 1395 1397 1401 1405 1409 1412 1416 1420 1425 1430 1436 1443 1450 1457 1463
1385 1378 1372 1366 1360 1355 1351 1348 1346 1346 1346 1347 1349 1352 1355 1358 1361 1364 1367 1371 1374 1377 1380 1383 1385 1386 1387 1388 1390 1392 1395 1399 1403 1407 1411 1416 1421 1427 1435 1442 1449 1457 1464
1381 1374 1368 1362 1356 1352 1348 1345 1342 1341 1341 1342 1344 1346 1349 1352 1355 1359 1362 1366 1369 1372 1375 1378 1380 1381 1382 1384 1385 1387 1390 1394 1398 1402 1407 1413 1419 1426 1433 1440 1447 1455 1463
1378 1372 1366 1360 1354 1350 1346 1342 1340 1339 1338 1338 1340 1342 1345 1347 1351 1354 1358 1361 1365 1368 1371 1373 1375 1377 1378 1379 1381 1382 1385 1390 1394 1398 1404 1410 1417 1424 1432 1440 1447 1454 1461
1375 1370 1364 1359 1354 1349 1345 1342 1339 1337 1336 1336 1337 1340 1342 1345 1348 1351 1354 1358 1362 1365 1367 1369 1371 1373 1374 1376 1377 1379 1382 1385 1390 1395 1402 1408 1416 1423 1431 1439 1447 1454 1460
1374 1369 1364 1359 1354 1350 1346 1343 1340 1338 1336 1336 1337 1339 1341 1344 1346 1349 1352 1356 1359 1361 1364 1366 1368 1369 1371 1373 1374 1376 1379 1383 1388 1394 1401 1408 1416 1424 1431 1439 1446 1453 1459
1373 1369 1364 1359 1355 1351 1348 1345 1342 1340 1338 1338 1339 1341 1342 1345 1347 1349 1352 1355 1357 1359 1361 1363 1364 1366 1368 1370 1372 1374 1378 1383 1388 1394 1402 1409 1417 1424 1432 1439 1445 1452 1458
1373 1368 1365 1361 1357 1354 1350 1348 1345 1343 1342 1342 1342 1343 1344 1346 1348 1350 1352 1354 1356 1357 1359 1360 1362 1363 1365 1368 1370 1373 1377 1382 1389 1396 1404 1412 1419 1426 1432 1439 1445 1451 1456
1373 1369 1366 1363 1360 1356 1353 1351 1349 1347 1346 1345 1345 1346 1347 1348 1349 1350 1352 1353 1354 1356 1357 1359 1360 1362 1364 1367 1369 1374 1379 1385 1392 1400 1407 1414 1421 1427 1433 1438 1444 1449 1455
1373 1370 1367 1364 1362 1359 1356 1354 1352 1351 1349 1349 1349 1349 1349 1350 1351 1351 1352 1353 1354 1355 1356 1358 1359 1361 1364 1367 1371 1377 1382 1389 1396 1403 1410 1416 1422 1428 1433 1439 1444 1449 1454
1373 1370 1368 1365 1363 1361 1359 1357 1356 1354 1353 1352 1352 1351 1352 1352 1353 1353 1353 1354 1354 1356 1357 1358 1359 1362 1365 1370 1374 1380 1386 1393 1399 1406 1412 1417 1423 1428 1434 1439 1444 1449 1453
1374 1371 1368 1366 1365 1363 1362 1360 1359 1357 1356 1355 1355 1355 1355 1355 1355 1355 1356 1356 1357 1358 1360 1361 1363 1365 1369 1374 1380 1385 1391 1397 1402 1408 1413 1418 1424 1429 1434 1439 1444 1448 1452
1375 1372 1369 1367 1366 1365 1364 1363 1362 1361 1360 1359 1358 1358 1358 1359 1359 1359 1360 1360 1361 1363 1364 1366 1368 1371 1375 1380 1385 1390 1395 1400 1405 1410 1415 1420 1425 1430 1435 1440 1444 1448 1452
1376 1373 1371 1369 1367 1366 1365 1365 1364 1364 1363 1362 1362 1362 1362 1362 1363 1363 1364 1365 1366 1368 1370 1372 1374 1377 1381 1385 1389 1394 1398 1403 1408 1412 1417 1422 1427 1431 1436 1440 1444 1448 1452
1378 1375 1372 1370 1368 1367 1366 1366 1366 1366 1366 1366 1365 1366 1366 1366 1367 1368 1369 1370 1371 1373 1375 1377 1379 1382 1385 1389 1393 1397 1401 1406 1410 1415 1419 1423 1428 1432 1437 1440 1444 1448 1451